STARLINK-32848, 62808

Orbit data source: Space-Track

STARLINK-32848, 62808 is a payload satellite owned by SpaceX/Seattle (US) in LEO that was launched on Fri, 24 Jan 2025 UTC via an FALCON 9 launch vehicle from the Air Force Western Test Range (AFWTR). Payload-class satellites include a variety of spacecraft equipped with specific instruments for various scientific and technological missions. These include communications satellites like Starlink; space stations such as the ISS; scientific satellites like the Hubble; Earth observation satellites from companies like Planet Labs, Umbra, and HawkEye 360; GPS; miniature CubeSats for education and research; and military/defense satellites.

Loading next visibility...
Identifier
62808, 2025-018C
Orbit
LEO
Country
Flag of USUS
Related business
Manufacturer
SpaceX/Seattle
Mission
Operational Commercial Communications
Bus & Motor
STARLINK V2M, Unknown motor
Mass
730 kg wet, ~700 kg dry
Launch date (UTC)
2025-01-24 (7 months ago)
Launch vehicle
FALCON 9
Launch site
Air Force Western Test Range (AFWTR)
Object type
Payload
Rocket body
Debris
Shape & HBR
Box + 2 Pan, 14.5 m
Radar Cross Section
33.884 m², Large (>1 m²)

Expand to show TLE details & history
Last TLE update: 19 hours ago

TLE from 19 hours ago
0 STARLINK-32848
1 62808U 25018C   25243.06659478  .00051764  00000-0  17477-2 0  9992
2 62808  53.1577 114.9870 0000895  85.5320 274.5783 15.30199730 33986
Epoch: 2025-08-31T01:35Z
TLE epoch observation values (Epoch: 2025-08-31T01:35:53.788Z)
Latitude
-0.00005°
Longitude
111.52098°
Altitude
476.066 km
Speed
7.629 km/s
True Right ascension
07h 39m 56s
True Declination
0° 00' 00"
Sunlit
Object was in daylight at epoch
Visualization orbit readout
Latitude
Unknown
Longitude
Unknown
Altitude
Unknown
Speed
Unknown
Apparent Right ascension
Unknown
Apparent Declination
Unknown
Sunlit
N/A
Visualization observer readout
Local Sidereal Time
12:19:58
Azimuth
Unknown
Elevation
Unknown
Doppler factor
Unknown
Orbital elements
Apogee altitude
476.086 km
Perigee altitude
474.859 km
Semi-major axis
6,853.61 km
Eccentricity
0.00009
Inclination
53.1577°
RAAN
114.987°
Arg. of periapsis
85.532°
True anomaly
274.56808°
Mean anomaly
274.5783°
Eccentric anomaly
274.57319°
Mean motion
3.82529 °/min
Orbital period
94.11 mins
BSTAR
0.0017477
Loading maneuver chart data...
Computing Atmospheric mass density...
Loading historical data...
Loading historical data...
Loading historical data...
Loading historical data...
Loading historical data...
Loading historical data...
Loading historical data...

Documentation

Showing up to 5 results
|